www.pogodaiklimat.ru

Погода и климат >> Архив погоды >> Алжир >> In Amenas


ПОГОДА в In Amenas

  • Прогноз погоды в In Amenas
  • Монитор погоды в In Amenas
  • Климат города

АРХИВ ПОГОДЫ в In Amenas

Время (UTC), дата Ветер
(напр.,м/с)
 
Видим.   Явления Облачность Т
(С)
Тd
(С)
f
(%)
Тe
(С)
Тes
(С)
Комфортность P
(гПа)
Po
(гПа)
Тmin
(С)
Tmax
(С)
R
(мм)
R24
(мм)
S
(см)
00 14.05 В 5 10 км ясно +26.0 +0.7 19 +24 +24 комфорт 1010.0 1010.0
03 14.05 СВ 4 10 км ясно +23.0 +0.7 23 +22 +22 комфорт 1009.7 1010.0
06 14.05 В 9 5000 м в посл. час гроза {дождь} 8/5 900 м
[Cb cap As op]
+25.3 +2.9 23 +24 +24 комфорт 1010.4 1010.0 +22.3 0.0
09 14.05 В 10 1500 м пыльный позёмок 5/3 1200 м
[Sc Ac trans]
+31.8 +1.7 15 +29 +29 жарко 1010.2 1010.0
12 14.05 ЮВ 10 2000 м пыльный позёмок 5/3 1300 м
[Cu hum Ac trans]
+35.1 +1.1 12 +32 +32 жарко 1008.6 1009.0
15 14.05 ЮВ 9 3500 м пыльный позёмок 5/3 1300 м
[Cu hum Ac trans]
+36.2 +2.8 12 +33 +33 жарко 1006.6 1007.0
18 14.05 В 9 2500 м пыльный позёмок 5/3 1300 м
[Cu hum Ac trans]
+32.3 +3.3 16 +30 +30 жарко 1006.6 1007.0 +36.8
21 14.05 ЮВ 8 3000 м пыльный позёмок 4/0
[Ac trans]
+30.5 +5.6 21 +29 +29 жарко 1007.2 1007.0
00 15.05 В 5 4000 м мгла {гроза} 4/0
[Ac trans]
+26.2 +10.7 38 +27 +27 жарко 1006.7 1007.0
03 15.05 В 4 4000 м мгла 4/0
[Ac trans]
+24.7 +6.9 32 +25 +25 комфорт 1006.1 1006.0
06 15.05 В 5 5000 м мгла 4/0 2000 м
[Ac trans]
+26.0 +4.6 25 +25 +26 комфорт 1007.2 1007.0 +23.9
09 15.05 ЮВ 10 3000 м пыльный позёмок 4/0 2000 м
[Ac trans]
+33.7 +1.5 13 +31 +31 жарко 1006.9 1007.0
12 15.05 ЮЗ 5 5000 м 4/0
[Ac trans]
+38.4 +0.3 9 +35 +43 очень
жарко
1004.5 1005.0
15 15.05 ЮЗ 6 5000 м 5/4 1380 м
[Cu med, cong Ac trans]
+39.8 +1.0 9 +36 +38 очень
жарко
1001.7 1002.0
18 15.05 СЗ 10 6000 м 4/3 1380 м
[Cu hum Ac trans]
+36.2 -0.5 10 +32 +32 жарко 1002.5 1003.0 +40.6
21 15.05 СВ 10 5000 м пыльный позёмок ясно +30.0 +4.7 20 +28 +28 жарко 1005.2 1005.0
00 16.05 СВ 10 4000 м пыльный позёмок ясно +26.6 +7.1 29 +26 +26 жарко 1004.8 1005.0
03 16.05 В 8 5000 м ясно +24.1 +6.8 33 +24 +24 комфорт 1004.4 1004.0
06 16.05 В 6 4000 м мгла 3/3 1380 м
[Cu hum Ci sp]
+23.5 +8.3 38 +24 +25 комфорт 1005.5 1006.0 +22.7
09 16.05 ЮВ 6 4000 м мгла 4/0
[Ci sp]
+32.0 +5.4 19 +30 +36 жарко 1005.4 1005.0
12 16.05 ЮЗ 7 4000 м мгла 4/0
[Ci sp]
+37.8 +0.9 10 +34 +39 очень
жарко
1004.1 1004.0
15 16.05 ЮЗ 8 6000 м 5/0
[Ac trans Ci sp]
+39.9 +7.0 14 +38 +39 очень
жарко
1002.0 1002.0
18 16.05 З 7 4000 м мгла 8/0
[Ci sp]
+37.3 -0.8 9 +33 +33 жарко 1002.7 1003.0 +40.9
21 16.05 СВ 4 6000 м 6/0
[Ci sp]
+31.3 -5.3 9 +27 +27 жарко 1004.1 1004.0
00 17.05 С 1 6000 м 4/0
[Ci sp]
+26.9 -8.6 9 +24 +24 комфорт 1005.2 1005.0
03 17.05 СЗ 1 6000 м 3/0
[Ci sp]
+23.6 -2.1 18 +22 +22 комфорт 1006.2 1006.0
06 17.05 СЗ 1 5000 м 4/0
[Ci sp]
+23.8 -2.7 17 +22 +24 комфорт 1007.3 1007.0 +22.1
09 17.05 ЮВ 2 5000 м 4/0
[Ci sp]
+35.0 +2.5 13 +32 +47 жарко 1006.2 1006.0
12 17.05 СЗ 3 6000 м 5/0
[Ci]
+38.9 -3.1 7 +35 +50 очень
жарко
1005.5 1006.0
15 17.05 СЗ 4 6000 м 8/0
[Ci]
+39.2 -2.9 7 +35 +40 очень
жарко
1004.3 1004.0
18 17.05 С 13 1000 м пыльный позёмок 8/0
[Ac trans Ci sp]
+34.3 +3.9 15 +32 +32 жарко 1004.6 1005.0 +40.0
21 17.05 СВ 14 500 м пыльный позёмок 8/0
[Ac trans Ci sp]
+29.0 +7.0 25 +28 +28 жарко 1005.3 1005.0
00 18.05 СВ 11 500 м пыльный позёмок 10/4 1200 м
[Cu med, cong Ac trans Ci sp]
+27.3 +7.1 28 +27 +27 жарко 1005.3 1005.0
03 18.05 С 4 6000 м 10/4 1200 м
[Cu med, cong Ac trans Ci sp]
+25.9 +7.5 31 +26 +26 жарко 1007.8 1008.0
06 18.05 В 7 6000 м 10/5 1000 м
[Cb calv Ac trans]
+25.8 +6.9 30 +26 +26 жарко 1007.4 1007.0 +25.0
09 18.05 В 2 6000 м 9/3 1000 м
[Cu med, cong Ac trans]
+31.4 +5.7 20 +30 +35 жарко 1009.5 1010.0
12 18.05 В 8 5000 м пыльный позёмок 8/3 1200 м
[Cb calv Ac trans]
+37.2 +2.1 11 +34 +35 очень
жарко
1006.7 1007.0
15 18.05 В 5 5000 м мгла 9/3 1200 м
[Cb calv Ac trans Ci sp]
+36.8 +1.9 11 +33 +35 жарко 1005.0 1005.0
18 18.05 СЗ 8 6000 м в посл. час дождь 9/5 1000 м
[Cb calv Ac trans]
+31.0 +9.1 26 +30 +30 жарко 1006.5 1007.0 +38.4 0.0
21 18.05 СЗ 3 8000 м 6/4 1200 м
[Cu med, cong Ac trans]
+31.3 +4.9 19 +29 +29 жарко 1008.7 1009.0
00 19.05 В 7 8000 м 6/4 1200 м
[Cu med, cong Ac trans]
+29.2 +6.5 24 +28 +28 жарко 1006.4 1006.0
03 19.05 В 10 6000 м пыльный позёмок {гроза, дождь} 9/5 900 м
[Cu med, cong Ac und]
+28.3 +6.4 25 +27 +27 жарко 1004.5 1005.0
06 19.05 ЮВ 9 4000 м пыльный позёмок {гроза, дождь} 5/0 2000 м
[Ac trans Ci sp]
+29.7 +5.6 22 +28 +28 жарко 1005.7 1006.0 +27.1 0.2
09 19.05 ЮВ 11 1500 м пыльный позёмок 9/3 1380 м
[Cu hum Ac trans Ci sp]
+34.4 +3.4 14 +31 +31 жарко 1005.4 1005.0
12 19.05 Ю 10 2500 м пыльный позёмок 5/3 1380 м
[Cu hum Ac trans]
+38.8 +0.5 9 +35 +36 очень
жарко
1004.1 1004.0
15 19.05 З 11 3000 м пыльный позёмок 5/3 1380 м
[Cu hum Ac trans]
+39.1 +0.5 9 +35 +35 очень
жарко
1002.6 1003.0
18 19.05 З 5 6000 м 8/3 1380 м
[Cu hum Ac trans Ci sp]
+35.5 -2.2 9 +32 +32 жарко 1003.4 1003.0 +40.0
21 19.05 ЮЗ 2 10 км 6/1 1380 м
[Cu hum Ac trans Ci sp]
+31.6 -6.8 8 +28 +28 жарко 1003.9 1004.0
00 20.05 Ю 2 10 км 6/1 1380 м
[Cu hum Ac trans Ci sp]
+28.6 -7.3 9 +25 +25 комфорт 1003.4 1003.0
03 20.05 ЮЗ 2 10 км 6/1 1380 м
[Cu hum Ac trans Ci sp]
+27.1 -8.4 9 +24 +24 комфорт 1003.7 1004.0
06 20.05 ЮЗ 2 4000 м мгла 8/0
[Ci sp]
+26.0 -7.9 10 +23 +25 комфорт 1005.5 1006.0 +25.0
09 20.05 З 8 3500 м пыльный позёмок 10/0
[Ci sp]
+33.9 -11.1 5 +29 +31 жарко 1006.0 1006.0
12 20.05 З 10 3500 м пыльный позёмок 10/0
[Ci sp]
+37.1 -8.7 5 +33 +34 жарко 1005.1 1005.0
15 20.05 З 10 4000 м пыльный позёмок 8/0
[Ci sp]
+38.4 0.0 9 +35 +35 очень
жарко
1003.5 1004.0
18 20.05 СЗ 6 5000 м 6/0
[Ci sp]
+34.5 -2.9 9 +31 +31 жарко 1004.9 1005.0 +38.7

 

Местоположение метеостанции In Amenas (Алжир): широта 28.05 долгота 9.63 высота над уровнем моря 562 м.

В архиве по умолчанию представлена погода в In Amenas за последнюю неделю. Архивные данные за месяц целиком и за предыдущие месяцы, начиная с января 2011 года, Вы можете получить, выбрав интересующий диапазон дат из раскрывающегося списка и нажав кнопку "Ввод!".


*Определитесь, кто Вы:
робот инопланетянин человек

Внимание! Время в таблицах - всемирное. Для получения местного времени необходимо прибавить поправку, которая в In Amenas равна 1 ч.

Смотрите также архив погоды в соседних городах и на ближайших метеорологических станциях:

Погода в Tin Fouye (Алжир) (208 км)
Погода в Illizi (Алжир) (210 км)
Погода в Ghadames (Ливия) (232 км)
Погода в Fadnoune (Алжир) (287 км)
Погода в Rhourde-Nouss (Алжир) (340 км)
Погода в El Hamada (Ливия) (361 км)
Погода в Bordj Haous (Алжир) (381 км)
Погода в Tinalkoum (Алжир) (388 км)
Погода в El Borma (Тунис) (406 км)
Погода в Djanet (Алжир) (421 км)

Пояснения к столбцам:

Ветер - указаны скорость ветра в м/с - средняя за 10 мин, порывы в срок и между сроками (в фигурных скобках) и направление, откуда дует ветер: С - северный, СВ - северо-восточный, В - восточный, ЮВ - юго-восточный, Ю - южный, ЮЗ - юго-западный, З - западный, СЗ - северо-западный.
Видимость - горизонтальная дальность видимости в метрах или километрах. При видимости от 1 до 10 км при отсутствии осадков обычно наблюдается дымка, при ухудшении видимости до 1 км и менее - туман. В сухую погоду видимость может ухудшаться дымом, пылью или мглою.
Явления - указаны атмосферные явления, наблюдавшиеся в срок или в последний час перед сроком; фигурными скобками обозначены явления, наблюдавшиеся между сроками (за 1-3 часа до срока); квадратными скобками обозначены град или гололедные отложения с указанием их диаметра в мм.
Облачность - указаны через наклонную черту общая и нижняя облачность в баллах и высота нижней границы облаков в метрах; квадратными скобками обозначены формы облаков: Ci - перистые, Cs - перисто-слоистые, Cc - перисто-кучевые, Ac - высококучевые, As - высокослоистые, Sc - слоисто-кучевые, Ns - слоисто-дождевые, Cu - кучевые, Cb - кучево-дождевые. Подробнее классификацию облаков см. в Атласе облаков (PDF).
T - Температура воздуха - температура, измеренная на высоте 2 м над землей.
Td - Температура точки росы - температура, при понижении до которой содержащийся в воздухе водяной пар достигнет насыщения.
f - Относительная влажность воздуха - влажноcть воздуха, измеренная на высоте 2 м над землей.
Te - Эффективная температура - температура, которую ощущает одетый по сезону человек в тени. Характеристика душности погоды. При расчете учитывается влияние влажности воздуха и скорости ветра на теплоощущения человека.
Tes - Эффективная температура на солнце - температура, которую ощущает человек, с поправкой на солнечный нагрев. Характеристика знойности погоды. Зависит от высоты солнца над горизонтом, облачности и скорости ветра. Ночью, в пасмурную погоду, а также при ветре 12 м/с и более поправка равна нулю.
P - Атмосферное давление - приведенное к уровню моря атмосферное давление.
Po - Атмосферное давление - измеренное на уровне метеостанции атмосферное давление.
Tmin - Минимальная температура - минимум температуры воздуха на высоте 2 м над землей.
Tmax - Максимальная температура - максимум температуры воздуха на высоте 2 м над землей.
R - Количество осадков - Количество выпавших осадков за период времени, мм. При наведении курсора мыши на число - период времени, за который выпало указанное количество осадков.
R24 - Количество осадков - Количество выпавших осадков за 24 часа, мм.
S - Снежный покров - Высота снежного покрова, см. При наведении курсора мыши на число - состояние снежного покрова и степень покрытия местности в баллах.